Tracking 30166 objects as of 22-Jan-2025
HD Live streaming from Space Station
objects crossing your sky now

FENGYUN 2G DEB

Track FENGYUN 2G DEB now!


NORAD ID: 43646
Int'l Code: 2014-090D
Perigee: 34,923.3 km
Apogee: 36,635.3 km
Inclination: 6.3 °
Period: 1,435.4 minutes
Semi major axis: 42150 km
RCS: Unknown
Launch date: December 31, 2014
Source: People's Republic of China (PRC)
Launch site: Xichang Space Center, China (XSC)

Note: This is SATELLITE DEBRIS
Your satellite tracking list
Your tracking list is empty




NASA's NSSDC Master Catalog

Two Line Element Set (TLE):
1 43646U 14090D   25020.69306745 -.00000019  00000-0  00000-0 0  9997
2 43646   6.2539  74.5210 0203086 266.9304  90.7440  1.00323224 36569
Source of the keplerian elements: AFSPC